[[{"header":{"parameterUnit":"m.s-1","parameterCategory":1,"la1":30.2992,"la2":30.254,"lo1":-89.0895,"lo2":-89.0443,"dy":0.0025,"dx":0.0025,"nx":19,"ny":19,"refTime":"2026-05-10T21:00:00:Z","depth":0,"parameterNumber":2,"parameterNumberName":"U-component_of_WINDS"},"data":[0,0,0,-2.9103,-2.9103,-2.9082,-2.9082,-2.9092,-2.9092,0,0,0,0,0,0,0,0,0,0,0,-2.9131,-2.9131,-2.9103,-2.9103,-2.9082,-2.9082,-2.9092,-2.9092,0,0,0,0,0,0,0,0,0,0,0,-2.913,-2.9131,-2.9132,-2.9103,-2.9082,-2.9081,-2.9092,-2.9095,0,0,0,0,0,0,0,0,0,0,-2.9109,-2.9155,-2.9131,-2.9132,-2.9103,-2.9082,-2.9081,-2.9094,-2.9094,-2.9117,0,-2.9142,0,-2.9118,-2.9095,-2.9096,0,0,0,-2.9087,-2.9155,-2.913,-2.9132,-2.9103,-2.9082,-2.9087,-2.9094,-2.9094,-2.9118,-2.9142,-2.9141,-2.9118,-2.9096,-2.9096,-2.9281,-2.9283,0,0,-2.9088,-2.9138,-2.913,-2.9131,-2.9136,-2.9088,-2.9086,-2.9094,-2.9123,-2.9142,-2.9141,-2.9118,-2.9096,-2.9096,-2.9279,-2.9281,0,0,0,-2.9102,-2.914,-2.9114,-2.9132,-2.9125,-2.9087,-2.9086,-2.9123,-2.911,-2.9141,-2.9118,-2.9096,-2.9097,-2.9278,-2.928,-2.9411,0,0,0,-2.9102,-2.9148,-2.9115,-2.9146,-2.9126,-2.9123,-2.9116,-2.911,-2.9109,-2.9118,-2.9096,-2.9097,-2.9276,-2.9279,-2.9403,-2.9464,0,0,0,-2.9125,-2.915,-2.9154,-2.9148,-2.9141,-2.9122,-2.9109,-2.9108,-2.9096,-2.9096,-2.9097,-2.9274,-2.9278,-2.9396,-2.9453,-2.953,0,0,0,-2.9163,-2.9268,-2.9157,-2.9267,-2.9142,-2.9202,-2.9109,-2.9151,-2.9166,-2.9096,-2.9276,-2.928,-2.9394,-2.9446,-2.9523,-2.9606,-2.9644,0,0,-2.9324,-2.9289,-2.935,-2.925,-2.9344,-2.9202,-2.9315,-2.928,-2.9234,-2.9268,-2.9272,-2.9405,-2.9452,-2.9529,-2.9838,-2.9869,0,0,0,-2.9418,-2.9463,-2.9477,-2.9494,-2.9471,-2.9457,-2.94,-2.9388,-2.9416,-2.9261,-2.9451,-2.9477,-2.952,-2.9558,-2.9584,-2.9619,-2.9299,-2.9298,-2.9298,-2.9718,-2.9655,-2.9752,-2.9688,-2.9706,-2.9648,-2.9658,-2.9632,-2.956,-2.9607,-2.9617,-2.9813,-2.9858,-2.9877,-2.9915,-2.9653,-2.9654,-2.9654,-2.9655,-2.9951,-3.0005,-2.9911,-2.9972,-2.9906,-2.9956,-2.9906,-2.9855,-2.9894,-2.9798,-2.9833,-2.9737,-2.9913,-2.9943,-2.9664,-2.9662,-2.9661,-2.966,-2.966,-3.0142,-3.0157,-3.0142,-3.0163,-3.0187,-3.0117,-3.016,-3.0097,-3.0037,-3.0072,-3.0078,-3.0076,-3.0068,-3.0079,-3.008,-3.008,-3.0081,-3.0081,-3.0082,-3.0348,-3.0326,-3.037,-3.0357,-3.0362,-3.0361,-3.0307,-3.031,-3.0298,-3.0248,-3.0248,-3.0176,-2.9941,-2.9886,-3.0092,-3.009,-3.0089,-3.0088,-3.0087,-3.0611,-3.0542,-3.061,-3.0616,-3.0598,-3.0628,-3.0547,-3.0561,-3.0554,-3.0579,-3.0499,-3.0335,-3.0295,-3.0274,-3.0228,-3.051,-3.051,-3.051,-3.051,-3.0774,-3.0748,-3.0806,-3.0819,-3.0825,-3.076,-3.0843,-3.0804,-3.0752,-3.0745,-3.0694,-3.0626,-3.0607,-3.0579,-3.0551,-3.0507,-3.0854,-3.0854,-3.0855,-3.0934,-3.0906,-3.0988,-3.0937,-3.0919,-3.0907,-3.0984,-3.1005,-3.0931,-3.0867,-3.0739,-3.0724,-3.0614,-3.0581,-3.0515,-3.0473,-3.0391,0,0]},{"header":{"parameterUnit":"m.s-1","parameterCategory":1,"la1":30.2992,"la2":30.254,"lo1":-89.0895,"lo2":-89.0443,"dy":0.0025,"dx":0.0025,"nx":19,"ny":19,"refTime":"2026-05-10T21:00:00:Z","depth":0,"parameterNumber":3,"parameterNumberName":"V-component_of_WINDS"},"data":[0,0,0,1.818,1.8178,1.8112,1.8112,1.8014,1.8013,0,0,0,0,0,0,0,0,0,0,0,1.8193,1.8192,1.818,1.8178,1.8112,1.8112,1.8014,1.8013,0,0,0,0,0,0,0,0,0,0,0,1.8193,1.8192,1.8191,1.8178,1.8112,1.8112,1.8014,1.8068,0,0,0,0,0,0,0,0,0,0,1.8134,1.8141,1.8193,1.8191,1.8177,1.8113,1.8112,1.8071,1.8065,1.8038,0,1.8015,0,1.8012,1.8005,1.8005,0,0,0,1.8182,1.8146,1.8134,1.8191,1.8177,1.8113,1.8143,1.8068,1.8061,1.803,1.8014,1.801,1.8011,1.8005,1.8004,1.7842,1.7841,0,0,1.8186,1.8177,1.8139,1.813,1.8142,1.8145,1.8141,1.8064,1.8044,1.8013,1.8008,1.8009,1.8004,1.8003,1.7842,1.7841,0,0,0,1.8193,1.8179,1.817,1.8133,1.8123,1.8143,1.8138,1.8048,1.8046,1.8007,1.8008,1.8003,1.8002,1.7843,1.7842,1.7785,0,0,0,1.8196,1.8184,1.8171,1.8165,1.8124,1.8085,1.8124,1.8051,1.8042,1.8008,1.8003,1.8001,1.7845,1.7843,1.7789,1.7758,0,0,0,1.8199,1.8185,1.8173,1.8165,1.8137,1.8086,1.808,1.8049,1.8043,1.8005,1.8001,1.7845,1.7843,1.7793,1.7764,1.771,0,0,0,1.82,1.8124,1.8172,1.8088,1.8137,1.8054,1.8081,1.8018,1.798,1.8003,1.7844,1.7842,1.7794,1.7767,1.7714,1.7661,1.7639,0,0,1.8099,1.8112,1.8063,1.8104,1.801,1.8065,1.7961,1.7933,1.7937,1.7872,1.7869,1.7788,1.7764,1.7711,1.7528,1.7511,0,0,0,1.8028,1.7992,1.7969,1.7932,1.7911,1.7888,1.7878,1.7867,1.7813,1.7903,1.7757,1.7743,1.7712,1.7686,1.7672,1.7643,1.7832,1.7832,1.7832,1.7869,1.788,1.7798,1.78,1.7765,1.7755,1.7726,1.7709,1.773,1.7695,1.7674,1.7563,1.7533,1.7522,1.7492,1.7651,1.7651,1.7651,1.7651,1.7719,1.7668,1.7699,1.763,1.7641,1.7583,1.757,1.7586,1.7531,1.7579,1.7552,1.7599,1.7503,1.7477,1.7647,1.7647,1.7648,1.7648,1.7648,1.7612,1.759,1.758,1.7528,1.7486,1.7492,1.7438,1.7451,1.7462,1.7436,1.7413,1.7414,1.7412,1.7425,1.7425,1.7424,1.7424,1.7424,1.7423,1.7504,1.7495,1.7449,1.742,1.7398,1.737,1.736,1.7338,1.7315,1.7328,1.7328,1.7349,1.7494,1.7527,1.7417,1.7418,1.7419,1.742,1.742,1.7339,1.7379,1.7307,1.7285,1.7251,1.7207,1.7226,1.7179,1.7162,1.7134,1.7163,1.7269,1.7282,1.7293,1.732,1.7164,1.7164,1.7164,1.7164,1.7245,1.7255,1.7183,1.7146,1.7112,1.7122,1.7037,1.7029,1.7026,1.7015,1.7041,1.708,1.7092,1.7097,1.7113,1.7138,1.6939,1.6939,1.6938,1.7142,1.7149,1.7075,1.7075,1.705,1.7027,1.6947,1.6901,1.6906,1.6929,1.7006,1.7016,1.7079,1.71,1.7119,1.7144,1.7191,0,0]}]]